TimeCST,TemperatureF,Dew PointF,Humidity,Sea Level PressureIn,VisibilityMPH,Wind Direction,Wind SpeedMPH,Gust SpeedMPH,PrecipitationIn,Events,Conditions,WindDirDegrees,DateUTC
12:15 AM,35.6,35.6,100,29.83,1.8,NNE,3.5,-,N/A,,Overcast,20,2012-12-02 06:15:00
12:35 AM,35.6,35.6,100,29.85,1.8,NNW,4.6,-,N/A,,Overcast,330,2012-12-02 06:35:00
12:55 AM,35.6,35.6,100,29.85,2.0,NW,3.5,-,N/A,,Overcast,320,2012-12-02 06:55:00
1:15 AM,35.6,35.6,100,29.87,2.0,NW,5.8,-,N/A,,Overcast,320,2012-12-02 07:15:00
1:55 AM,35.6,35.6,100,29.87,3.0,North,3.5,-,N/A,,Overcast,350,2012-12-02 07:55:00
2:15 AM,35.6,33.8,93,29.87,2.0,Calm,Calm,-,N/A,,Overcast,0,2012-12-02 08:15:00
2:35 AM,35.6,33.8,93,29.88,2.5,Calm,Calm,-,N/A,,Overcast,0,2012-12-02 08:35:00
2:55 AM,35.6,33.8,93,29.88,2.5,Calm,Calm,-,N/A,,Overcast,0,2012-12-02 08:55:00
3:15 AM,35.6,33.8,93,29.88,3.0,NNE,3.5,-,N/A,,Overcast,20,2012-12-02 09:15:00
3:35 AM,35.6,33.8,93,29.89,3.0,North,3.5,-,N/A,,Overcast,10,2012-12-02 09:35:00
3:55 AM,33.8,33.8,100,29.89,2.5,North,3.5,-,N/A,,Overcast,350,2012-12-02 09:55:00
4:15 AM,33.8,33.8,100,29.90,2.5,North,3.5,-,N/A,,Overcast,350,2012-12-02 10:15:00
4:35 AM,33.8,33.8,100,29.90,2.5,Calm,Calm,-,N/A,,Overcast,0,2012-12-02 10:35:00
4:55 AM,33.8,33.8,100,29.90,3.0,Calm,Calm,-,N/A,,Overcast,0,2012-12-02 10:55:00
5:15 AM,33.8,33.8,100,29.91,3.0,Calm,Calm,-,N/A,,Overcast,0,2012-12-02 11:15:00
5:35 AM,33.8,33.8,100,29.92,2.5,Calm,Calm,-,N/A,,Overcast,0,2012-12-02 11:35:00
5:55 AM,33.8,33.8,100,29.93,2.5,North,3.5,-,N/A,,Overcast,350,2012-12-02 11:55:00
6:15 AM,33.8,33.8,100,29.93,2.5,Calm,Calm,-,N/A,,Overcast,0,2012-12-02 12:15:00
6:35 AM,33.8,33.8,100,29.94,2.5,NNE,3.5,-,N/A,,Overcast,30,2012-12-02 12:35:00
6:55 AM,33.8,33.8,100,29.94,3.0,Calm,Calm,-,N/A,,Overcast,0,2012-12-02 12:55:00
7:15 AM,33.8,33.8,100,29.95,3.0,Calm,Calm,-,N/A,,Overcast,0,2012-12-02 13:15:00
7:35 AM,33.8,33.8,100,29.96,3.0,Calm,Calm,-,N/A,,Overcast,0,2012-12-02 13:35:00
7:55 AM,33.8,33.8,100,29.97,2.0,SW,3.5,-,N/A,,Overcast,220,2012-12-02 13:55:00
8:15 AM,33.8,33.8,100,29.97,1.8,Calm,Calm,-,N/A,,Overcast,0,2012-12-02 14:15:00
8:35 AM,33.8,33.8,100,29.97,1.8,SSW,3.5,-,N/A,,Overcast,200,2012-12-02 14:35:00
8:55 AM,35.6,33.8,93,29.97,2.0,Calm,Calm,-,N/A,,Overcast,0,2012-12-02 14:55:00
9:15 AM,35.6,33.8,93,29.98,2.0,Calm,Calm,-,N/A,,Overcast,0,2012-12-02 15:15:00
9:35 AM,35.6,33.8,93,29.98,2.0,SSW,4.6,-,N/A,,Overcast,200,2012-12-02 15:35:00
9:55 AM,35.6,33.8,93,29.98,2.5,South,3.5,-,N/A,,Overcast,180,2012-12-02 15:55:00
10:15 AM,35.6,33.8,93,29.98,2.5,Calm,Calm,-,N/A,,Overcast,0,2012-12-02 16:15:00
10:35 AM,35.6,33.8,93,29.97,2.5,South,5.8,-,N/A,,Overcast,190,2012-12-02 16:35:00
10:55 AM,35.6,33.8,93,29.97,2.5,South,4.6,-,N/A,,Overcast,180,2012-12-02 16:55:00
11:15 AM,35.6,33.8,93,29.97,2.5,South,8.1,-,N/A,,Overcast,190,2012-12-02 17:15:00
11:35 AM,35.6,33.8,93,29.96,2.5,SSE,6.9,-,N/A,,Overcast,160,2012-12-02 17:35:00
11:55 AM,35.6,33.8,93,29.96,2.5,SSW,5.8,-,N/A,,Overcast,200,2012-12-02 17:55:00
12:15 PM,35.6,33.8,93,29.96,2.5,South,4.6,-,N/A,,Overcast,190,2012-12-02 18:15:00
12:35 PM,35.6,33.8,93,29.96,2.0,SSW,5.8,-,N/A,,Overcast,200,2012-12-02 18:35:00
12:55 PM,35.6,33.8,93,29.95,2.0,South,6.9,-,N/A,,Overcast,190,2012-12-02 18:55:00
1:15 PM,35.6,33.8,93,29.95,2.0,SSW,5.8,-,N/A,,Overcast,210,2012-12-02 19:15:00
1:35 PM,35.6,33.8,93,29.94,2.0,South,6.9,-,N/A,,Overcast,190,2012-12-02 19:35:00
1:55 PM,35.6,33.8,93,29.95,2.0,South,4.6,-,N/A,,Overcast,180,2012-12-02 19:55:00
2:15 PM,35.6,33.8,93,29.94,2.5,SW,5.8,-,N/A,,Overcast,220,2012-12-02 20:15:00
2:35 PM,35.6,33.8,93,29.94,2.5,SW,5.8,-,N/A,,Overcast,220,2012-12-02 20:35:00
2:55 PM,35.6,33.8,93,29.96,2.5,SSW,8.1,-,N/A,,Overcast,200,2012-12-02 20:55:00
3:15 PM,35.6,33.8,93,29.95,2.5,South,8.1,-,N/A,,Overcast,190,2012-12-02 21:15:00
3:35 PM,35.6,35.6,100,29.96,2.5,South,8.1,-,N/A,,Overcast,190,2012-12-02 21:35:00
3:55 PM,35.6,35.6,100,29.94,2.0,South,6.9,-,N/A,,Overcast,170,2012-12-02 21:55:00
4:15 PM,35.6,33.8,93,29.91,2.5,SSE,5.8,-,N/A,,Overcast,150,2012-12-02 22:15:00
4:35 PM,35.6,33.8,93,29.91,2.0,South,11.5,16.1,N/A,,Overcast,170,2012-12-02 22:35:00
4:55 PM,35.6,35.6,100,29.90,3.0,SSE,8.1,-,N/A,,Overcast,160,2012-12-02 22:55:00
5:15 PM,35.6,33.8,93,29.90,2.5,SSE,8.1,-,N/A,,Overcast,160,2012-12-02 23:15:00
5:35 PM,35.6,35.6,100,29.90,2.5,SSE,5.8,-,N/A,,Overcast,160,2012-12-02 23:35:00
5:55 PM,35.6,33.8,93,29.90,3.0,South,8.1,-,N/A,,Overcast,170,2012-12-02 23:55:00
6:15 PM,35.6,33.8,93,29.89,3.0,SSE,8.1,-,N/A,,Overcast,160,2012-12-03 00:15:00
6:35 PM,35.6,35.6,100,29.89,3.0,South,5.8,-,N/A,,Overcast,170,2012-12-03 00:35:00
6:55 PM,35.6,35.6,100,29.89,4.0,South,6.9,-,N/A,,Overcast,170,2012-12-03 00:55:00
7:15 PM,35.6,33.8,93,29.88,4.0,South,9.2,-,N/A,,Overcast,170,2012-12-03 01:15:00
7:35 PM,35.6,33.8,93,29.88,4.0,South,12.7,-,N/A,,Overcast,170,2012-12-03 01:35:00
7:55 PM,35.6,33.8,93,29.86,4.0,South,10.4,-,N/A,,Overcast,170,2012-12-03 01:55:00
8:15 PM,35.6,33.8,93,29.86,4.0,South,10.4,-,N/A,,Overcast,170,2012-12-03 02:15:00
8:35 PM,35.6,33.8,93,29.85,4.0,SSE,8.1,-,N/A,,Overcast,160,2012-12-03 02:35:00
8:55 PM,35.6,33.8,93,29.84,5.0,South,10.4,-,N/A,,Mostly Cloudy,170,2012-12-03 02:55:00
9:15 PM,35.6,33.8,93,29.83,5.0,South,9.2,-,N/A,,Mostly Cloudy,170,2012-12-03 03:15:00
9:35 PM,35.6,33.8,93,29.83,5.0,South,9.2,-,N/A,,Mostly Cloudy,170,2012-12-03 03:35:00
9:55 PM,35.6,33.8,93,29.83,7.0,South,8.1,-,N/A,,Scattered Clouds,170,2012-12-03 03:55:00
10:15 PM,35.6,33.8,93,29.83,7.0,South,8.1,-,N/A,,Clear,170,2012-12-03 04:15:00
10:35 PM,35.6,33.8,93,29.83,7.0,South,8.1,-,N/A,,Clear,190,2012-12-03 04:35:00
10:55 PM,35.6,33.8,93,29.83,7.0,South,6.9,-,N/A,,Scattered Clouds,180,2012-12-03 04:55:00
11:15 PM,35.6,35.6,100,29.83,7.0,South,9.2,-,N/A,,Scattered Clouds,170,2012-12-03 05:15:00
11:35 PM,37.4,35.6,93,29.83,5.0,South,12.7,17.3,N/A,,Mostly Cloudy,180,2012-12-03 05:35:00
11:55 PM,37.4,35.6,93,29.83,5.0,South,10.4,-,N/A,,Mostly Cloudy,170,2012-12-03 05:55:00